TimeMST,TemperatureF,Dew PointF,Humidity,Sea Level PressureIn,VisibilityMPH,Wind Direction,Wind SpeedMPH,Gust SpeedMPH,PrecipitationIn,Events,Conditions,WindDirDegrees,DateUTC
12:15 AM,19.4,12.2,74,30.05,10.0,NW,5.8,-,N/A,,Clear,310,2012-11-29 07:15:00
12:35 AM,19.4,12.2,74,30.04,10.0,NNW,3.5,-,N/A,,Clear,330,2012-11-29 07:35:00
12:55 AM,17.6,12.2,79,30.03,10.0,WSW,8.1,-,N/A,,Clear,240,2012-11-29 07:55:00
1:15 AM,21.2,15.8,80,30.03,10.0,SE,3.5,-,N/A,,Clear,130,2012-11-29 08:15:00
1:35 AM,19.4,15.8,86,30.02,10.0,ENE,3.5,-,N/A,,Clear,60,2012-11-29 08:35:00
1:55 AM,19.4,14.0,80,30.02,10.0,NW,3.5,-,N/A,,Clear,310,2012-11-29 08:55:00
2:15 AM,19.4,15.8,86,30.03,10.0,NW,5.8,-,N/A,,Clear,320,2012-11-29 09:15:00
2:35 AM,17.6,14.0,86,30.03,5.0,North,6.9,-,N/A,,Clear,360,2012-11-29 09:35:00
2:55 AM,19.4,12.2,74,30.02,10.0,Calm,Calm,-,N/A,,Clear,0,2012-11-29 09:55:00
3:15 AM,19.4,12.2,74,30.02,10.0,Calm,Calm,-,N/A,,Clear,0,2012-11-29 10:15:00
3:35 AM,19.4,15.8,86,30.00,10.0,Calm,Calm,-,N/A,,Clear,0,2012-11-29 10:35:00
3:55 AM,21.2,15.8,80,30.00,10.0,Calm,Calm,-,N/A,,Clear,0,2012-11-29 10:55:00
4:15 AM,21.2,15.8,80,30.00,10.0,South,3.5,-,N/A,,Clear,170,2012-11-29 11:15:00
4:35 AM,21.2,17.6,86,30.01,10.0,WNW,5.8,-,N/A,,Clear,300,2012-11-29 11:35:00
4:55 AM,23.0,17.6,80,30.01,10.0,North,5.8,-,N/A,,Clear,350,2012-11-29 11:55:00
5:15 AM,24.8,17.6,74,30.02,10.0,Calm,Calm,-,N/A,,Clear,0,2012-11-29 12:15:00
5:35 AM,23.0,17.6,80,30.02,10.0,Calm,Calm,-,N/A,,Clear,0,2012-11-29 12:35:00
5:55 AM,23.0,17.6,80,30.02,10.0,North,3.5,-,N/A,,Clear,10,2012-11-29 12:55:00
6:15 AM,23.0,17.6,80,30.02,10.0,South,5.8,-,N/A,,Clear,180,2012-11-29 13:15:00
6:35 AM,21.2,15.8,80,30.02,10.0,WSW,6.9,-,N/A,,Clear,250,2012-11-29 13:35:00
7:15 AM,21.2,15.8,80,30.02,10.0,NE,6.9,-,N/A,,Clear,40,2012-11-29 14:15:00
7:35 AM,23.0,17.6,80,30.03,10.0,West,3.5,-,N/A,,Clear,260,2012-11-29 14:35:00
7:55 AM,24.8,19.4,80,30.03,10.0,East,4.6,-,N/A,,Clear,80,2012-11-29 14:55:00
8:15 AM,26.6,19.4,74,30.04,9.0,SSW,3.5,-,N/A,,Clear,200,2012-11-29 15:15:00
8:35 AM,28.4,21.2,74,30.03,10.0,NE,3.5,-,N/A,,Clear,50,2012-11-29 15:35:00
9:35 AM,33.8,21.2,60,30.05,10.0,North,3.5,-,N/A,,Clear,360,2012-11-29 16:35:00
9:55 AM,37.4,21.2,52,30.05,10.0,WSW,4.6,-,N/A,,Clear,250,2012-11-29 16:55:00
10:15 AM,37.4,21.2,52,30.05,10.0,Calm,Calm,-,N/A,,Clear,0,2012-11-29 17:15:00
10:35 AM,39.2,23.0,52,30.05,10.0,WSW,4.6,-,N/A,,Clear,240,2012-11-29 17:35:00
10:55 AM,39.2,21.2,49,30.04,10.0,Calm,Calm,-,N/A,,Clear,0,2012-11-29 17:55:00
11:15 AM,44.6,24.8,46,30.03,10.0,Calm,Calm,-,N/A,,Clear,0,2012-11-29 18:15:00
11:35 AM,46.4,23.0,40,30.02,10.0,SW,3.5,-,N/A,,Clear,220,2012-11-29 18:35:00
11:55 AM,48.2,23.0,37,30.01,10.0,SSW,4.6,-,N/A,,Clear,200,2012-11-29 18:55:00
12:15 PM,51.8,26.6,38,30.00,10.0,SSW,6.9,-,N/A,,Clear,200,2012-11-29 19:15:00
12:35 PM,53.6,26.6,35,29.99,10.0,South,9.2,-,N/A,,Clear,180,2012-11-29 19:35:00
12:55 PM,55.4,24.8,31,29.98,10.0,SSE,6.9,-,N/A,,Clear,160,2012-11-29 19:55:00
1:15 PM,57.2,24.8,29,29.97,10.0,SE,3.5,-,N/A,,Clear,140,2012-11-29 20:15:00
1:35 PM,60.8,24.8,25,29.97,10.0,SSW,4.6,-,N/A,,Clear,200,2012-11-29 20:35:00
1:55 PM,59.0,24.8,27,29.96,10.0,Calm,Calm,-,N/A,,Clear,0,2012-11-29 20:55:00
2:15 PM,59.0,24.8,27,29.96,10.0,East,5.8,-,N/A,,Clear,100,2012-11-29 21:15:00
2:35 PM,59.0,26.6,29,29.96,10.0,East,5.8,-,N/A,,Clear,80,2012-11-29 21:35:00
3:15 PM,57.2,24.8,29,29.97,10.0,ENE,4.6,-,N/A,,Clear,60,2012-11-29 22:15:00
3:35 PM,53.6,24.8,33,29.98,10.0,ESE,5.8,-,N/A,,Clear,110,2012-11-29 22:35:00
3:55 PM,48.2,24.8,40,29.98,6.0,East,5.8,-,N/A,,Clear,80,2012-11-29 22:55:00
4:15 PM,46.4,24.8,43,29.99,8.0,ENE,5.8,-,N/A,,Clear,70,2012-11-29 23:15:00
4:35 PM,44.6,24.8,46,29.99,10.0,East,3.5,-,N/A,,Clear,80,2012-11-29 23:35:00
4:55 PM,39.2,21.2,49,29.99,10.0,NE,5.8,-,N/A,,Clear,50,2012-11-29 23:55:00
5:15 PM,35.6,21.2,56,30.00,10.0,Calm,Calm,-,N/A,,Clear,0,2012-11-30 00:15:00
5:35 PM,35.6,19.4,52,30.00,10.0,NNE,8.1,-,N/A,,Clear,30,2012-11-30 00:35:00
5:55 PM,35.6,21.2,56,30.00,10.0,North,4.6,-,N/A,,Clear,360,2012-11-30 00:55:00
6:15 PM,35.6,21.2,56,30.01,10.0,NNW,4.6,-,N/A,,Clear,330,2012-11-30 01:15:00
6:55 PM,33.8,21.2,60,30.03,10.0,WNW,6.9,-,N/A,,Clear,300,2012-11-30 01:55:00
7:15 PM,32.0,19.4,60,30.03,10.0,NW,10.4,-,N/A,,Clear,310,2012-11-30 02:15:00
7:35 PM,30.2,19.4,64,30.03,10.0,NW,6.9,-,N/A,,Clear,310,2012-11-30 02:35:00
7:55 PM,30.2,21.2,69,30.04,10.0,NW,5.8,-,N/A,,Clear,310,2012-11-30 02:55:00
8:15 PM,30.2,19.4,64,30.04,10.0,ENE,3.5,-,N/A,,Clear,60,2012-11-30 03:15:00
8:35 PM,28.4,19.4,69,30.05,10.0,WSW,3.5,-,N/A,,Clear,240,2012-11-30 03:35:00
8:55 PM,28.4,19.4,69,30.05,10.0,NW,4.6,-,N/A,,Clear,310,2012-11-30 03:55:00
9:15 PM,28.4,19.4,69,30.05,10.0,NW,5.8,-,N/A,,Clear,310,2012-11-30 04:15:00
9:35 PM,28.4,21.2,74,30.05,10.0,NNE,4.6,-,N/A,,Clear,30,2012-11-30 04:35:00
10:15 PM,26.6,17.6,69,30.06,10.0,West,5.8,-,N/A,,Clear,270,2012-11-30 05:15:00
10:35 PM,26.6,19.4,74,30.07,10.0,WNW,4.6,-,N/A,,Clear,290,2012-11-30 05:35:00
10:55 PM,28.4,19.4,69,30.07,10.0,WNW,3.5,-,N/A,,Clear,300,2012-11-30 05:55:00
11:15 PM,24.8,19.4,80,30.07,10.0,Calm,Calm,-,N/A,,Clear,0,2012-11-30 06:15:00
11:35 PM,24.8,19.4,80,30.08,10.0,WNW,4.6,-,N/A,,Clear,300,2012-11-30 06:35:00
11:55 PM,23.0,17.6,80,30.07,10.0,NNW,5.8,-,N/A,,Clear,340,2012-11-30 06:55:00